Location: Byszew
(52.1813°N, 19.2693°E)
Time: 21:41:00
(UTC+00:00)

Cosmos 2369 Rocket - Pass Details

Date: 03 March 2021
Orbit: 829 x 852 km, 71.0° (Epoch: 15 April)

Event Time Altitude Azimuth Distance (km) Brightness Sun altitude
Rises 17:59:49 0° 321° (NW) 3,383 6.1 -15.1°
Reaches altitude 10° 18:03:55 10° 350° (N) 2,448 4.9 -15.7°
Maximum altitude 18:06:16 13° 15° (NNE) 2,268 4.4 -16.1°
Drops below altitude 10° 18:08:37 10° 40° (NE) 2,448 4.3 -16.4°
Enters shadow 18:09:21 - 47° (NE) 2,569 4.4 -16.5°
